Monument Pass, CO

8:46 AM MST on November 23, 2017 (GMT -0700)
Monument Pass

Weather History for KMNH - November, 2012

Change the Weather History Date:

Saturday, November 24, 2012

  Actual Average Record
Temperature  
Mean Temperature 47 °F -  
Max Temperature 62 °F - 64 °F (2011)
Min Temperature 32 °F - 1 °F (2007)
Degree Days  
Heating Degree Days 18    
Month to date heating degree days  
Cooling Degree Days 0    
Month to date cooling degree days  
Moisture  
Dew Point 4 °F    
Average Humidity 20    
Maximum Humidity 32    
Minimum Humidity 9    
Precipitation  
Precipitation 0.00 in - 0.02 in (2007)
Sea Level Pressure  
Sea Level Pressure 30.11 in    
Wind  
Wind Speed 11 mph (WSW)    
Max Wind Speed 18 mph    
Max Gust Speed 24 mph    
Visibility 10 miles    
Events      
T = Trace of Precipitation, MM = Missing Value Source: NWS Daily Summary

Daily Weather History Graph

Daily Weather History Graph

Search for Another Location

Airport or City:

Trip Planner

Search our weather history database for the weather conditions in past years. The results will help you decide how hot, cold, wet, or windy it might be!

Date:

Astronomy

Nov. 24, 2012 Rise Set
Actual Time 6:52 AM MST 4:38 PM MST
Civil Twilight 6:23 AM MST 5:07 PM MST
Nautical Twilight 5:50 AM MST 5:40 PM MST
Astronomical Twilight 5:18 AM MST 6:12 PM MST
Moon 2:23 PM MST (11/24) 3:12 AM MST (11/24)
Length of Visible Light 10h 44m
Length of Day
9h 45m
Waxing Gibbous, 87% of the Moon is Illuminated
Nov 24
Waxing Gibbous
Nov 28
Full
Dec 6
Last Quarter
Dec 13
New
Dec 19
First Quarter

Hourly Weather History & Observations

Time (MST) Temp. Windchill Dew Point Humidity Pressure Visibility Wind Dir Wind Speed Gust Speed Precip Events Conditions
12:11 AM 39.2 °F 32.5 °F 8.6 °F 28% 30.25 in 10.0 mi SW 10.4 mph - N/A   Clear
12:31 AM 37.4 °F 29.8 °F 6.8 °F 28% 30.24 in 10.0 mi SW 11.5 mph - N/A   Clear
12:50 AM 37.4 °F 30.3 °F 8.6 °F 30% 30.24 in 10.0 mi SSW 10.4 mph - N/A   Clear
1:11 AM 37.4 °F 29.3 °F 6.8 °F 28% 30.23 in 10.0 mi SW 12.7 mph - N/A   Clear
1:31 AM 37.4 °F 29.8 °F 6.8 °F 28% 30.23 in 10.0 mi SW 11.5 mph - N/A   Clear
1:51 AM 37.4 °F 30.8 °F 5.0 °F 26% 30.23 in 10.0 mi SW 9.2 mph - N/A   Clear
2:11 AM 35.6 °F 27.1 °F 6.8 °F 30% 30.22 in 10.0 mi SW 12.7 mph - N/A   Clear
2:31 AM 35.6 °F 28.6 °F 5.0 °F 28% 30.21 in 10.0 mi SW 9.2 mph - N/A   Clear
2:51 AM 33.8 °F 25.3 °F 5.0 °F 30% 30.21 in 10.0 mi WSW 11.5 mph - N/A   Clear
3:11 AM 35.6 °F 27.5 °F 5.0 °F 28% 30.20 in 10.0 mi WSW 11.5 mph - N/A   Clear
3:31 AM 35.6 °F 28.0 °F 3.2 °F 26% 30.19 in 10.0 mi SW 10.4 mph - N/A   Clear
3:51 AM 37.4 °F 29.8 °F 3.2 °F 24% 30.19 in 10.0 mi SW 11.5 mph - N/A   Clear
4:11 AM 39.2 °F 32.0 °F 3.2 °F 22% 30.19 in 10.0 mi SW 11.5 mph - N/A   Clear
4:31 AM 39.2 °F 32.5 °F 3.2 °F 22% 30.18 in 10.0 mi SW 10.4 mph - N/A   Clear
4:51 AM 39.2 °F 31.2 °F 3.2 °F 22% 30.17 in 10.0 mi SW 13.8 mph - N/A   Clear
5:11 AM 39.2 °F 32.5 °F 3.2 °F 22% 30.17 in 10.0 mi SW 10.4 mph - N/A   Clear
5:31 AM 37.4 °F 31.4 °F 1.4 °F 22% 30.17 in 10.0 mi SSW 8.1 mph - N/A   Clear
5:51 AM 37.4 °F 29.3 °F 1.4 °F 22% 30.17 in 10.0 mi SW 12.7 mph - N/A   Clear
6:10 AM 37.4 °F 29.3 °F 1.4 °F 22% 30.16 in 10.0 mi SW 12.7 mph - N/A   Clear
6:31 AM 35.6 °F 28.0 °F 1.4 °F 24% 30.16 in 10.0 mi SSW 10.4 mph - N/A   Clear
6:51 AM 39.2 °F 32.0 °F 1.4 °F 21% 30.16 in 10.0 mi SW 11.5 mph - N/A   Clear
7:11 AM 39.2 °F 32.0 °F 1.4 °F 21% 30.16 in 10.0 mi SW 11.5 mph - N/A   Clear
7:31 AM 42.8 °F 38.6 °F 1.4 °F 18% 30.17 in 10.0 mi SW 6.9 mph - N/A   Clear
7:51 AM 41.0 °F 36.4 °F 3.2 °F 21% 30.16 in 10.0 mi SSW 6.9 mph - N/A   Clear
8:11 AM 46.4 °F 41.9 °F 3.2 °F 17% 30.17 in 10.0 mi SW 9.2 mph - N/A   Clear
8:31 AM 51.8 °F - 5.0 °F 15% 30.15 in 10.0 mi WSW 9.2 mph - N/A   Clear
8:51 AM 57.2 °F - 5.0 °F 12% 30.15 in 10.0 mi West 13.8 mph - N/A   Clear
9:11 AM 57.2 °F - 5.0 °F 12% 30.15 in 10.0 mi West 12.7 mph - N/A   Clear
9:31 AM 55.4 °F - 5.0 °F 13% 30.15 in 10.0 mi West 15.0 mph 18.4 mph N/A   Clear
9:51 AM 55.4 °F - 5.0 °F 13% 30.15 in 10.0 mi WSW 11.5 mph 17.3 mph N/A   Clear
10:11 AM 55.4 °F - 5.0 °F 13% 30.15 in 10.0 mi WSW 12.7 mph - N/A   Clear
10:31 AM 55.4 °F - 5.0 °F 13% 30.13 in 10.0 mi WSW 11.5 mph - N/A   Clear
10:51 AM 60.8 °F - 5.0 °F 11% 30.13 in 10.0 mi West 13.8 mph 21.9 mph N/A   Clear
11:11 AM 62.6 °F - 3.2 °F 9% 30.12 in 10.0 mi West 18.4 mph 24.2 mph N/A   Clear
11:30 AM 59.0 °F - 3.2 °F 11% 30.11 in 10.0 mi West 18.4 mph - N/A   Clear
11:51 AM 59.0 °F - 3.2 °F 11% 30.10 in 10.0 mi West 13.8 mph - N/A   Clear
12:10 PM 59.0 °F - 3.2 °F 11% 30.10 in 10.0 mi West 13.8 mph 20.7 mph N/A   Clear
12:31 PM 59.0 °F - 3.2 °F 11% 30.09 in 10.0 mi West 13.8 mph - N/A   Clear
12:51 PM 59.0 °F - 3.2 °F 11% 30.08 in 10.0 mi West 16.1 mph - N/A   Clear
1:11 PM 59.0 °F - 3.2 °F 11% 30.08 in 10.0 mi West 16.1 mph - N/A   Clear
1:31 PM 57.2 °F - 3.2 °F 11% 30.07 in 10.0 mi West 13.8 mph 19.6 mph N/A   Clear
1:51 PM 57.2 °F - 3.2 °F 11% 30.07 in 10.0 mi West 12.7 mph - N/A   Clear
2:11 PM 55.4 °F - 3.2 °F 12% 30.05 in 10.0 mi West 10.4 mph - N/A   Clear
2:31 PM 55.4 °F - 5.0 °F 13% 30.05 in 10.0 mi West 12.7 mph - N/A   Clear
2:51 PM 55.4 °F - 3.2 °F 12% 30.05 in 10.0 mi West 13.8 mph - N/A   Clear
3:11 PM 53.6 °F - 5.0 °F 14% 30.05 in 10.0 mi West 6.9 mph - N/A   Clear
3:31 PM 53.6 °F - 3.2 °F 13% 30.04 in 10.0 mi WSW 8.1 mph - N/A   Clear
3:51 PM 50.0 °F - 3.2 °F 15% 30.05 in 10.0 mi West 8.1 mph - N/A   Clear
4:11 PM 51.8 °F - 3.2 °F 14% 30.05 in 10.0 mi West 10.4 mph - N/A   Clear
4:31 PM 50.0 °F - 3.2 °F 15% 30.05 in 10.0 mi WSW 10.4 mph - N/A   Clear
4:51 PM 48.2 °F - 3.2 °F 16% 30.05 in 10.0 mi WSW 9.2 mph - N/A   Clear
5:11 PM 46.4 °F 42.4 °F 3.2 °F 17% 30.04 in 10.0 mi West 8.1 mph - N/A   Clear
5:31 PM 46.4 °F 41.5 °F 3.2 °F 17% 30.05 in 10.0 mi NNW 10.4 mph - N/A   Clear
5:50 PM 44.6 °F 41.4 °F 3.2 °F 18% 30.05 in 10.0 mi North 5.8 mph - N/A   Clear
6:10 PM 46.4 °F 43.5 °F 3.2 °F 17% 30.05 in 10.0 mi North 5.8 mph - N/A   Clear
6:30 PM 46.4 °F - 3.2 °F 17% 30.05 in 10.0 mi Calm Calm - N/A   Clear
6:51 PM 46.4 °F 42.9 °F 5.0 °F 18% 30.05 in 10.0 mi NNW 6.9 mph - N/A   Clear
7:11 PM 42.8 °F 40.1 °F 5.0 °F 21% 30.05 in 10.0 mi NW 4.6 mph - N/A   Clear
7:31 PM 41.0 °F 38.0 °F 5.0 °F 23% 30.05 in 10.0 mi West 4.6 mph - N/A   Clear
7:51 PM 37.4 °F 33.8 °F 5.0 °F 26% 30.05 in 10.0 mi West 4.6 mph - N/A   Clear
8:11 PM 37.4 °F 32.1 °F 5.0 °F 26% 30.05 in 10.0 mi SW 6.9 mph - N/A   Clear
8:31 PM 41.0 °F 36.4 °F 5.0 °F 23% 30.05 in 10.0 mi SW 6.9 mph - N/A   Clear
8:51 PM 32.0 °F - 5.0 °F 32% 30.05 in 10.0 mi Calm Calm - N/A   Clear
9:11 PM 32.0 °F 28.7 °F 5.0 °F 32% 30.05 in 10.0 mi SSW 3.5 mph - N/A   Clear
9:31 PM 33.8 °F 28.6 °F 5.0 °F 30% 30.05 in 10.0 mi WSW 5.8 mph - N/A   Clear
9:51 PM 35.6 °F 30.7 °F 5.0 °F 28% 30.05 in 10.0 mi West 5.8 mph - N/A   Clear
10:11 PM 33.8 °F 27.7 °F 5.0 °F 30% 30.05 in 10.0 mi West 6.9 mph - N/A   Clear
10:31 PM 32.0 °F 24.8 °F 5.0 °F 32% 30.05 in 10.0 mi West 8.1 mph - N/A   Clear
10:51 PM 33.8 °F 27.0 °F 3.2 °F 28% 30.05 in 10.0 mi West 8.1 mph - N/A   Clear
11:10 PM 35.6 °F 28.0 °F 3.2 °F 26% 30.05 in 10.0 mi WSW 10.4 mph - N/A   Clear
11:31 PM 33.8 °F 26.4 °F 3.2 °F 28% 30.05 in 10.0 mi WSW 9.2 mph - N/A   Clear
11:51 PM 33.8 °F 25.8 °F 3.2 °F 28% 30.04 in 10.0 mi West 10.4 mph - N/A   Clear